[[{"header":{"parameterUnit":"m.s-1","parameterCategory":1,"la1":30.2991,"la2":30.254,"lo1":-89.0895,"lo2":-89.0444,"dy":0.0017,"dx":0.0017,"nx":28,"ny":28,"refTime":"2023-11-03T03:00:00:Z","depth":0,"parameterNumber":2,"parameterNumberName":"U-component_of_WINDS"},"data":[0,0,0,0,0,0,0,0,0,0,0,0,0,0,0,0,0,0,0,0,0,0,0,0,0,0,0,0,0,0,0,0,0,0,0,0,0,0,0,0,0,0,0,0,0,0,0,0,0,0,0,0,0,0,0,0,0,0,-3.4229,-3.4229,0,-3.4196,-3.4196,-3.4196,-3.3991,-3.3986,-3.3981,-3.3977,-3.3951,-3.3954,-3.3958,0,0,0,0,0,0,0,0,0,0,0,0,0,-3.4122,-3.4125,-3.4229,-3.4229,-3.4228,-3.4196,-3.4196,-3.4196,-3.3992,-3.3986,-3.398,-3.3975,-3.3949,-3.3954,-3.3959,0,0,0,0,0,0,0,0,0,0,0,0,0,-3.4137,-3.4126,-3.4229,-3.4123,-3.4113,-3.4197,-3.4196,-3.4195,-3.3994,-3.3986,-3.3979,-3.3972,-3.3948,-3.3954,-3.3959,-3.4145,0,0,-3.3977,-3.398,0,0,0,0,0,0,0,0,-3.4137,-3.4141,-3.4139,-3.413,-3.4119,-3.409,-3.4148,-3.4179,-3.3995,-3.4039,-3.3977,-3.3968,-3.4004,-3.4004,-3.4015,-3.4144,-3.4142,-3.3978,-3.3981,-3.3984,-3.3986,0,0,0,0,0,0,0,-3.4136,-3.4142,-3.4216,-3.4139,-3.4127,-3.4079,-3.4073,-3.4153,-3.4064,-3.4035,-3.402,-3.4018,-3.3997,-3.401,-3.4013,-3.4142,-3.3978,-3.3983,-3.3987,-3.3989,-3.4421,-3.4428,0,0,0,0,0,0,-3.4149,-3.4142,-3.4217,-3.4215,-3.411,-3.4087,-3.408,-3.4107,-3.4062,-3.4048,-3.4025,-3.4009,-3.4003,-3.4006,-3.4011,-3.4224,-3.3984,-3.3989,-3.3993,-3.4413,-3.4423,-3.4431,0,0,0,0,0,0,-3.4147,-3.4157,-3.4219,-3.4175,-3.4179,-3.4096,-3.4129,-3.4111,-3.4123,-3.4055,-3.4038,-3.4054,-3.3997,-3.4003,-3.4112,-3.4221,-3.3992,-3.3997,-3.4404,-3.4416,-3.4427,-3.4654,0,0,0,0,0,0,-3.4145,-3.4158,-3.4226,-3.4178,-3.4182,-3.432,-3.4136,-3.4115,-3.4133,-3.4112,-3.4078,-3.4065,-3.3992,-3.4105,-3.4118,-3.4225,-3.4002,-3.4393,-3.4409,-3.4423,-3.4636,-3.4672,-3.4702,0,0,0,0,0,-3.4142,-3.4293,-3.4231,-3.4241,-3.4265,-3.4326,-3.4329,-3.424,-3.4142,-3.4211,-3.4167,-3.4066,-3.4207,-3.4118,-3.4131,-3.4241,-3.4386,-3.4405,-3.4422,-3.4621,-3.4665,-3.4702,0,0,0,0,0,0,-3.4359,-3.4285,-3.4215,-3.4354,-3.4348,-3.4291,-3.4375,-3.4289,-3.4311,-3.4291,-3.4182,-3.4176,-3.4302,-3.4282,-3.4185,-3.4418,-3.4279,-3.4301,-3.4426,-3.4467,-3.4499,-3.4501,-3.4007,0,0,0,0,0,-3.4423,-3.4477,-3.4409,-3.4539,-3.4539,-3.4459,-3.4482,-3.4414,-3.4403,-3.44,-3.4364,-3.436,-3.4403,-3.4434,-3.447,-3.4632,-3.4622,-3.4715,-3.4748,-3.4775,-3.4795,-3.4879,-3.492,-3.449,-3.449,-3.4489,0,0,-3.4556,-3.4522,-3.4563,-3.4582,-3.4569,-3.4629,-3.4458,-3.4528,-3.4572,-3.4412,-3.4512,-3.4486,-3.4474,-3.4611,-3.467,-3.4598,-3.4912,-3.4798,-3.4821,-3.4825,-3.4902,-3.4943,-3.4979,-3.4502,-3.45,-3.4498,0,0,-3.4829,-3.4808,-3.4913,-3.4903,-3.4884,-3.483,-3.4856,-3.4812,-3.4788,-3.4886,-3.4767,-3.4819,-3.4895,-3.4891,-3.49,-3.5171,-3.5079,-3.5186,-3.5359,-3.5443,-3.5476,-3.5506,-3.5603,-3.5639,-3.5206,-3.5207,-3.5207,0,-3.4997,-3.508,-3.4979,-3.5057,-3.5069,-3.4925,-3.5031,-3.5027,-3.5023,-3.5036,-3.4955,-3.5047,-3.503,-3.5163,-3.5229,-3.5241,-3.5268,-3.5189,-3.5479,-3.5508,-3.5534,-3.5625,-3.5662,-3.522,-3.5218,-3.5217,-3.5216,0,-3.5287,-3.5347,-3.5435,-3.5431,-3.5453,-3.5546,-3.5461,-3.5496,-3.5426,-3.5381,-3.5484,-3.5457,-3.5484,-3.5511,-3.5445,-3.5636,-3.5592,-3.5498,-3.5356,-3.559,-3.5673,-3.5707,-3.5238,-3.5234,-3.523,-3.5227,0,0,-3.5696,-3.5634,-3.5668,-3.5664,-3.5633,-3.5678,-3.5765,-3.5789,-3.5821,-3.5824,-3.5894,-3.5962,-3.5874,-3.5883,-3.5816,-3.5889,-3.6105,-3.5785,-3.5783,-3.5845,-3.6314,-3.6385,-3.6427,-3.6044,-3.605,-3.6055,-3.6315,0,-3.5956,-3.6097,-3.6009,-3.6165,-3.6219,-3.6083,-3.6158,-3.6148,-3.6109,-3.615,-3.6107,-3.6156,-3.6036,-3.6041,-3.6107,-3.6065,-3.6198,-3.6045,-3.611,-3.6114,-3.6116,-3.6471,-3.6546,-3.6792,-3.6347,-3.6353,-3.6357,0,-3.6279,-3.6292,-3.6453,-3.641,-3.6429,-3.6498,-3.6513,-3.6554,-3.6541,-3.6507,-3.6518,-3.6432,-3.6515,-3.6376,-3.649,-3.6389,-3.641,-3.6394,-3.6401,-3.6403,-3.6249,-3.6482,-3.6868,-3.6905,-3.6407,-3.6403,-3.6399,0,-3.656,-3.6618,-3.6721,-3.6722,-3.6675,-3.6727,-3.6711,-3.6689,-3.671,-3.6724,-3.6736,-3.6762,-3.6776,-3.6799,-3.6723,-3.6628,-3.6848,-3.6702,-3.6822,-3.6825,-3.6874,-3.6872,-3.7269,-3.689,-3.689,-3.6889,-3.6888,0,-3.6859,-3.6963,-3.6846,-3.691,-3.7022,-3.6921,-3.7036,-3.7005,-3.6988,-3.7044,-3.6929,-3.6986,-3.6881,-3.6928,-3.6869,-3.6973,-3.6981,-3.6956,-3.694,-3.6966,-3.6969,-3.6978,-3.6959,-3.6899,-3.6897,-3.6895,-3.6893,0,-3.7191,-3.7117,-3.722,-3.7167,-3.7156,-3.7242,-3.7197,-3.7254,-3.7206,-3.7279,-3.7291,-3.7217,-3.7265,-3.7191,-3.7233,-3.7193,-3.7336,-3.7294,-3.734,-3.7327,-3.7452,-3.7441,-3.7868,-3.7918,-3.7509,-3.7513,-3.7516,0,-3.7386,-3.7462,-3.7417,-3.7445,-3.7434,-3.7482,-3.7501,-3.7406,-3.7431,-3.7422,-3.7481,-3.7519,-3.7544,-3.7629,-3.758,-3.7611,-3.7568,-3.7716,-3.7572,-3.7597,-3.757,-3.7566,-3.7573,-3.7745,-3.775,-3.7754,-3.7757,0,-3.7741,-3.77,-3.7731,-3.775,-3.7776,-3.7787,-3.779,-3.782,-3.772,-3.7755,-3.7801,-3.7821,-3.7862,-3.7902,-3.792,-3.7905,-3.7816,-3.7803,-3.7832,-3.786,-3.7883,-3.7871,-3.7419,-3.7793,-3.779,-3.7787,-3.7785,-3.7784,-3.8009,-3.807,-3.8047,-3.8086,-3.8077,-3.8083,-3.8133,-3.8091,-3.8128,-3.8151,-3.8094,-3.8155,-3.814,-3.8155,-3.8151,-3.8198,-3.8134,-3.8177,-3.8187,-3.8199,-3.8218,-3.7877,-3.8202,-3.82,-3.8199,-3.8198,-3.8198,0,-3.8357,-3.8335,-3.8371,-3.8377,-3.8409,-3.8319,-3.8318,-3.835,-3.8404,-3.8397,-3.8424,-3.8478,-3.8516,-3.8471,-3.8501,-3.8548,-3.8508,-3.8559,-3.8554,-3.8553,-3.8274,-3.8245,-3.8591,-3.8591,-3.8591,-3.8591,-3.8591,-3.8591,-3.8541,-3.8638,-3.8596,-3.8689,-3.8667,-3.8723,-3.873,-3.8735,-3.8728,-3.8793,-3.8823,-3.8792,-3.8771,-3.8798,-3.883,-3.8816,-3.8832,-3.8898,-3.887,-3.8611,-3.8572,-3.8535,-3.8507,-3.8903,-3.8903,-3.9143,-3.9145,-3.9147]},{"header":{"parameterUnit":"m.s-1","parameterCategory":1,"la1":30.2991,"la2":30.254,"lo1":-89.0895,"lo2":-89.0444,"dy":0.0017,"dx":0.0017,"nx":28,"ny":28,"refTime":"2023-11-03T03:00:00:Z","depth":0,"parameterNumber":3,"parameterNumberName":"V-component_of_WINDS"},"data":[0,0,0,0,0,0,0,0,0,0,0,0,0,0,0,0,0,0,0,0,0,0,0,0,0,0,0,0,0,0,0,0,0,0,0,0,0,0,0,0,0,0,0,0,0,0,0,0,0,0,0,0,0,0,0,0,0,0,-1.4373,-1.4374,0,-1.447,-1.4471,-1.4472,-1.4535,-1.4536,-1.4536,-1.4537,-1.4632,-1.4634,-1.4636,0,0,0,0,0,0,0,0,0,0,0,0,0,-1.424,-1.4243,-1.4373,-1.4375,-1.4376,-1.4469,-1.4471,-1.4472,-1.4535,-1.4536,-1.4536,-1.4537,-1.4631,-1.4634,-1.4636,0,0,0,0,0,0,0,0,0,0,0,0,0,-1.4313,-1.4243,-1.4373,-1.4419,-1.4424,-1.4469,-1.4471,-1.4472,-1.4535,-1.4536,-1.4537,-1.4537,-1.463,-1.4633,-1.4636,-1.4643,0,0,-1.4646,-1.4648,0,0,0,0,0,0,0,0,-1.4309,-1.4318,-1.4411,-1.4416,-1.4421,-1.4491,-1.4459,-1.453,-1.4535,-1.4493,-1.4537,-1.4537,-1.4584,-1.4591,-1.4608,-1.4648,-1.4652,-1.4646,-1.4648,-1.465,-1.4651,0,0,0,0,0,0,0,-1.4304,-1.4314,-1.4411,-1.4412,-1.4419,-1.4433,-1.4444,-1.4473,-1.4534,-1.4497,-1.4501,-1.4512,-1.4587,-1.4605,-1.461,-1.4653,-1.4646,-1.4649,-1.4651,-1.4652,-1.4702,-1.4701,0,0,0,0,0,0,-1.4292,-1.431,-1.4408,-1.4414,-1.4366,-1.4435,-1.4447,-1.4468,-1.4533,-1.4544,-1.4511,-1.4515,-1.4599,-1.4607,-1.4614,-1.4626,-1.465,-1.4653,-1.4655,-1.4702,-1.4702,-1.4701,0,0,0,0,0,0,-1.4289,-1.4301,-1.4404,-1.4363,-1.4378,-1.4437,-1.4459,-1.447,-1.4487,-1.4545,-1.4556,-1.4518,-1.46,-1.461,-1.4635,-1.463,-1.4654,-1.4657,-1.4703,-1.4702,-1.4701,-1.4649,0,0,0,0,0,0,-1.4285,-1.4299,-1.4303,-1.4363,-1.438,-1.4425,-1.4459,-1.4471,-1.4493,-1.4498,-1.4554,-1.4564,-1.4601,-1.463,-1.4639,-1.4635,-1.466,-1.4704,-1.4703,-1.4702,-1.4651,-1.4646,-1.4642,0,0,0,0,0,-1.428,-1.4284,-1.4303,-1.4315,-1.4386,-1.4425,-1.4434,-1.4478,-1.4492,-1.4496,-1.4533,-1.4562,-1.4629,-1.4632,-1.4642,-1.4639,-1.4704,-1.4703,-1.4702,-1.4653,-1.4647,-1.4642,0,0,0,0,0,0,-1.4221,-1.4293,-1.4315,-1.4338,-1.4375,-1.4435,-1.4442,-1.447,-1.4503,-1.4506,-1.4557,-1.4569,-1.459,-1.4617,-1.462,-1.4648,-1.467,-1.4671,-1.463,-1.4624,-1.462,-1.4612,-1.4662,0,0,0,0,0,-1.4211,-1.4237,-1.4298,-1.4313,-1.433,-1.4383,-1.4401,-1.4431,-1.4471,-1.4487,-1.4526,-1.4562,-1.4591,-1.4609,-1.464,-1.4655,-1.4668,-1.4658,-1.4653,-1.4649,-1.4649,-1.4658,-1.4654,-1.4697,-1.4697,-1.4697,0,0,-1.419,-1.4232,-1.4246,-1.4302,-1.4334,-1.4359,-1.4395,-1.442,-1.4439,-1.449,-1.4517,-1.4547,-1.4591,-1.4611,-1.4622,-1.4635,-1.464,-1.4647,-1.4643,-1.4646,-1.4656,-1.4652,-1.4648,-1.4696,-1.4696,-1.4696,0,0,-1.4164,-1.42,-1.4215,-1.4247,-1.4295,-1.433,-1.4333,-1.439,-1.4412,-1.444,-1.4478,-1.45,-1.455,-1.458,-1.4601,-1.4585,-1.4613,-1.4593,-1.4569,-1.4577,-1.4574,-1.4571,-1.4564,-1.4562,-1.4593,-1.4593,-1.4593,0,-1.4132,-1.4172,-1.422,-1.4243,-1.4265,-1.4314,-1.4329,-1.4357,-1.4412,-1.4426,-1.444,-1.4502,-1.4535,-1.4563,-1.4559,-1.4575,-1.458,-1.4587,-1.4571,-1.4568,-1.4566,-1.4561,-1.4558,-1.459,-1.459,-1.4591,-1.4591,0,-1.4129,-1.4156,-1.4163,-1.4216,-1.424,-1.4259,-1.4308,-1.4326,-1.4354,-1.4386,-1.4413,-1.4455,-1.4494,-1.4503,-1.453,-1.4534,-1.454,-1.4561,-1.4584,-1.4559,-1.4554,-1.4553,-1.4586,-1.4587,-1.4588,-1.4589,0,0,-1.407,-1.4148,-1.415,-1.4174,-1.423,-1.4252,-1.4272,-1.4311,-1.4325,-1.4361,-1.4379,-1.4419,-1.4439,-1.4463,-1.4494,-1.4501,-1.4485,-1.4522,-1.4524,-1.4513,-1.4491,-1.4474,-1.4471,-1.4504,-1.4504,-1.4504,-1.4487,0,-1.4052,-1.4093,-1.4135,-1.416,-1.4185,-1.4231,-1.4248,-1.4284,-1.4315,-1.4339,-1.4373,-1.4401,-1.4425,-1.444,-1.445,-1.4485,-1.4481,-1.4487,-1.4519,-1.452,-1.4507,-1.4469,-1.4452,-1.4434,-1.4486,-1.4485,-1.4485,0,-1.4038,-1.4072,-1.4099,-1.4153,-1.4165,-1.418,-1.4219,-1.4242,-1.4283,-1.4304,-1.4331,-1.4364,-1.4386,-1.4406,-1.4437,-1.444,-1.4455,-1.4475,-1.4475,-1.4479,-1.4501,-1.4471,-1.4429,-1.4426,-1.4483,-1.4483,-1.4483,0,-1.399,-1.4043,-1.4067,-1.4086,-1.4149,-1.4158,-1.4185,-1.4226,-1.4246,-1.428,-1.4293,-1.4328,-1.4347,-1.4373,-1.4414,-1.4425,-1.4439,-1.4463,-1.4457,-1.4456,-1.4458,-1.4457,-1.4417,-1.4469,-1.4469,-1.4469,-1.4469,0,-1.3966,-1.3981,-1.4046,-1.406,-1.4078,-1.4126,-1.4141,-1.4172,-1.4208,-1.4228,-1.4269,-1.4286,-1.434,-1.4363,-1.4395,-1.4415,-1.4423,-1.444,-1.4449,-1.4437,-1.4434,-1.4447,-1.4449,-1.4468,-1.4468,-1.4468,-1.4468,0,-1.3916,-1.3961,-1.3989,-1.4046,-1.4061,-1.4071,-1.4119,-1.4134,-1.4167,-1.4191,-1.42,-1.4251,-1.4281,-1.4324,-1.4366,-1.4388,-1.4402,-1.4416,-1.4389,-1.4394,-1.4385,-1.4385,-1.4351,-1.4349,-1.4402,-1.4401,-1.4401,0,-1.3898,-1.391,-1.3969,-1.3985,-1.4011,-1.4037,-1.4058,-1.4105,-1.4125,-1.4172,-1.4181,-1.4213,-1.4242,-1.4287,-1.4327,-1.436,-1.4374,-1.436,-1.4379,-1.4366,-1.4373,-1.4372,-1.4373,-1.4355,-1.4354,-1.4354,-1.4353,0,-1.386,-1.3881,-1.391,-1.3947,-1.3971,-1.4002,-1.4035,-1.4045,-1.41,-1.412,-1.4151,-1.4173,-1.4216,-1.4248,-1.4286,-1.4312,-1.4341,-1.4347,-1.4347,-1.4335,-1.4318,-1.4326,-1.4376,-1.4348,-1.4348,-1.4349,-1.4349,-1.4349,-1.3825,-1.3838,-1.3881,-1.3911,-1.3941,-1.397,-1.3987,-1.4022,-1.4049,-1.4089,-1.4115,-1.4144,-1.4183,-1.4237,-1.4261,-1.4284,-1.4297,-1.4297,-1.4297,-1.4296,-1.4291,-1.4315,-1.4291,-1.4291,-1.4292,-1.4292,-1.4292,0,-1.3788,-1.3818,-1.3846,-1.3891,-1.3914,-1.3941,-1.3978,-1.3996,-1.4022,-1.4056,-1.4084,-1.4119,-1.4149,-1.4192,-1.4225,-1.4235,-1.4249,-1.4242,-1.4242,-1.4247,-1.4279,-1.4275,-1.423,-1.423,-1.423,-1.423,-1.423,-1.423,-1.3772,-1.3795,-1.3821,-1.3858,-1.3888,-1.3918,-1.3937,-1.3963,-1.3991,-1.4029,-1.4055,-1.4082,-1.412,-1.4156,-1.4185,-1.4197,-1.4207,-1.4195,-1.4211,-1.4239,-1.4245,-1.425,-1.4247,-1.4197,-1.4197,-1.4177,-1.4177,-1.4177]}]]